Hourly Weather Belmopan

Today, 20 September, Sunday

Time Temperature Precipitation Wind Pressure Humidity
00:00 +23°C° 0 mm 0 mps 751 mmHg 97%
01:00 +23°C° 0 mm 0 mps 751 mmHg 97%
02:00 +23°C° 0 mm 0 mps 750 mmHg 97%
03:00 +23°C° 0 mm 0 mps 750 mmHg 97%
04:00 +23°C° 0 mm 0 mps 750 mmHg 98%
05:00 +23°C° 0 mm 0 mps 750 mmHg 98%
06:00 +23°C° 0 mm 0 mps 750 mmHg 98%
07:00 +25°C° 0 mm 0 mps 751 mmHg 88%
08:00 +28°C° 0 mm 0 mps 751 mmHg 78%
09:00 +30°C° 0 mm 0 mps 752 mmHg 68%
10:00 +30°C° 0.8 mm 0 mps 751 mmHg 71%
11:00 +32°C° 0.8 mm 1 mps 751 mmHg 74%
12:00 +32°C° 0.8 mm 1 mps 751 mmHg 77%
13:00 +34°C° 0.5 mm 2 mps 750 mmHg 72%
14:00 +34°C° 0.5 mm 2 mps 750 mmHg 67%
15:00 +35°C° 0.5 mm 2 mps 749 mmHg 62%
16:00 +32°C° 0.2 mm 2 mps 749 mmHg 70%
17:00 +30°C° 0.2 mm 1 mps 750 mmHg 78%
18:00 +29°C° 0.2 mm 1 mps 750 mmHg 86%
19:00 +28°C° 0.3 mm 1 mps 751 mmHg 90%
20:00 +27°C° 0.3 mm 1 mps 751 mmHg 94%
21:00 +24°C° 0.3 mm 0 mps 752 mmHg 98%
22:00 +24°C° 0 mm 0 mps 752 mmHg 98%
23:00 +24°C° 0 mm 0 mps 752 mmHg 98%

Tomorrow, 21 September, Monday

Time Temperature Precipitation Wind Pressure Humidity
00:00 +23°C° 0 mm 0 mps 752 mmHg 98%
01:00 +23°C° 0 mm 0 mps 752 mmHg 98%
02:00 +23°C° 0 mm 0 mps 751 mmHg 98%
03:00 +23°C° 0 mm 0 mps 751 mmHg 99%
04:00 +23°C° 0 mm 0 mps 751 mmHg 98%
05:00 +23°C° 0 mm 0 mps 751 mmHg 98%
06:00 +22°C° 0 mm 0 mps 751 mmHg 98%
07:00 +25°C° 0 mm 0 mps 752 mmHg 87%
08:00 +27°C° 0 mm 0 mps 752 mmHg 77%
09:00 +30°C° 0 mm 0 mps 753 mmHg 66%
10:00 +31°C° 0 mm 0 mps 752 mmHg 59%
11:00 +35°C° 0 mm 1 mps 752 mmHg 51%
12:00 +36°C° 0 mm 1 mps 751 mmHg 43%
13:00 +36°C° 0.1 mm 1 mps 751 mmHg 46%
14:00 +35°C° 0.1 mm 1 mps 750 mmHg 49%
15:00 +35°C° 0.1 mm 2 mps 750 mmHg 53%
16:00 +32°C° 0.1 mm 1 mps 750 mmHg 62%
17:00 +30°C° 0.1 mm 1 mps 750 mmHg 72%
18:00 +28°C° 0.1 mm 1 mps 750 mmHg 81%
19:00 +27°C° 0 mm 1 mps 751 mmHg 84%
20:00 +26°C° 0 mm 1 mps 751 mmHg 87%
21:00 +26°C° 0 mm 1 mps 752 mmHg 90%
22:00 +25°C° 0 mm 1 mps 752 mmHg 91%
23:00 +25°C° 0 mm 1 mps 752 mmHg 92%

Day after tomorrow, 22 September, Tuesday

Time Temperature Precipitation Wind Pressure Humidity
00:00 +23°C° 0 mm 0 mps 752 mmHg 93%
01:00 +23°C° 0 mm 0 mps 751 mmHg 93%
02:00 +22°C° 0 mm 0 mps 751 mmHg 94%
03:00 +22°C° 0 mm 0 mps 751 mmHg 94%
04:00 +22°C° 0 mm 0 mps 751 mmHg 94%
05:00 +22°C° 0 mm 0 mps 751 mmHg 94%
06:00 +22°C° 0 mm 0 mps 752 mmHg 93%
07:00 +27°C° 0 mm 1 mps 752 mmHg 82%
08:00 +29°C° 0 mm 1 mps 752 mmHg 71%
09:00 +32°C° 0 mm 1 mps 753 mmHg 59%
10:00 +34°C° 0 mm 1 mps 752 mmHg 54%
11:00 +35°C° 0 mm 1 mps 752 mmHg 48%
12:00 +35°C° 0 mm 0 mps 752 mmHg 43%
13:00 +36°C° 0 mm 1 mps 751 mmHg 46%
14:00 +35°C° 0 mm 1 mps 750 mmHg 49%
15:00 +35°C° 0 mm 1 mps 749 mmHg 52%
16:00 +32°C° 0.3 mm 1 mps 749 mmHg 64%
17:00 +30°C° 0.3 mm 1 mps 749 mmHg 77%
18:00 +28°C° 0.3 mm 1 mps 750 mmHg 89%
19:00 +27°C° 0 mm 1 mps 750 mmHg 91%
20:00 +26°C° 0 mm 1 mps 751 mmHg 92%
21:00 +26°C° 0 mm 1 mps 751 mmHg 94%
22:00 +26°C° 0 mm 1 mps 751 mmHg 94%
23:00 +25°C° 0 mm 1 mps 751 mmHg 94%

23 September, Wednesday

Time Temperature Precipitation Wind Pressure Humidity
00:00 +23°C° 0 mm 0 mps 751 mmHg 94%
01:00 +25°C° 0 mm 1 mps 751 mmHg 95%
02:00 +25°C° 0 mm 1 mps 750 mmHg 95%
03:00 +24°C° 0 mm 1 mps 750 mmHg 96%
04:00 +24°C° 0 mm 1 mps 750 mmHg 96%
05:00 +24°C° 0 mm 1 mps 750 mmHg 96%
06:00 +24°C° 0 mm 1 mps 751 mmHg 96%
07:00 +27°C° 0 mm 1 mps 751 mmHg 84%
08:00 +30°C° 0 mm 1 mps 751 mmHg 73%
09:00 +32°C° 0 mm 1 mps 752 mmHg 61%
10:00 +34°C° 0 mm 1 mps 751 mmHg 56%
11:00 +36°C° 0 mm 1 mps 751 mmHg 50%
12:00 +35°C° 0 mm 0 mps 751 mmHg 45%
13:00 +36°C° 0.3 mm 1 mps 750 mmHg 50%
14:00 +35°C° 0.3 mm 1 mps 749 mmHg 55%
15:00 +34°C° 0.3 mm 1 mps 749 mmHg 60%
16:00 +32°C° 0.6 mm 1 mps 749 mmHg 71%
17:00 +30°C° 0.6 mm 1 mps 749 mmHg 81%
18:00 +26°C° 0.6 mm 0 mps 749 mmHg 92%
19:00 +25°C° 0.2 mm 0 mps 750 mmHg 93%
20:00 +24°C° 0.2 mm 0 mps 750 mmHg 94%
21:00 +24°C° 0.2 mm 0 mps 751 mmHg 95%
22:00 +24°C° 0.2 mm 0 mps 751 mmHg 95%
23:00 +23°C° 0.2 mm 0 mps 751 mmHg 96%

24 September, Thursday

Time Temperature Precipitation Wind Pressure Humidity
00:00 +23°C° 0.2 mm 0 mps 750 mmHg 96%
01:00 +23°C° 0 mm 0 mps 750 mmHg 96%
02:00 +23°C° 0 mm 0 mps 750 mmHg 97%
03:00 +23°C° 0 mm 0 mps 749 mmHg 97%
04:00 +22°C° 0 mm 0 mps 750 mmHg 97%
05:00 +22°C° 0 mm 0 mps 750 mmHg 97%
06:00 +22°C° 0 mm 0 mps 750 mmHg 98%
07:00 +25°C° 0 mm 0 mps 751 mmHg 86%
08:00 +28°C° 0 mm 0 mps 751 mmHg 74%
09:00 +31°C° 0 mm 0 mps 752 mmHg 62%
10:00 +32°C° 0 mm 0 mps 751 mmHg 56%
11:00 +36°C° 0 mm 1 mps 751 mmHg 49%
12:00 +37°C° 0 mm 1 mps 750 mmHg 43%
13:00 +36°C° 0.1 mm 1 mps 750 mmHg 46%
14:00 +37°C° 0.1 mm 2 mps 749 mmHg 48%
15:00 +36°C° 0.1 mm 2 mps 748 mmHg 51%
16:00 +34°C° 0.1 mm 2 mps 748 mmHg 60%
17:00 +31°C° 0.1 mm 2 mps 749 mmHg 70%
18:00 +28°C° 0.1 mm 1 mps 749 mmHg 79%
19:00 +28°C° 0 mm 1 mps 749 mmHg 83%
20:00 +27°C° 0 mm 1 mps 750 mmHg 87%
21:00 +26°C° 0 mm 1 mps 751 mmHg 90%
22:00 +26°C° 0 mm 1 mps 751 mmHg 92%
23:00 +25°C° 0 mm 1 mps 751 mmHg 94%

25 September, Friday

Time Temperature Precipitation Wind Pressure Humidity
00:00 +23°C° 0 mm 0 mps 750 mmHg 96%
01:00 +23°C° 0 mm 0 mps 750 mmHg 96%
02:00 +23°C° 0 mm 0 mps 750 mmHg 97%
03:00 +22°C° 0 mm 0 mps 750 mmHg 98%
04:00 +22°C° 0 mm 0 mps 750 mmHg 97%
05:00 +22°C° 0 mm 0 mps 750 mmHg 97%
06:00 +22°C° 0 mm 0 mps 751 mmHg 96%
07:00 +25°C° 0.1 mm 0 mps 751 mmHg 85%
08:00 +28°C° 0.1 mm 0 mps 751 mmHg 74%
09:00 +30°C° 0.1 mm 0 mps 752 mmHg 63%
10:00 +33°C° 0 mm 1 mps 751 mmHg 62%
11:00 +33°C° 0 mm 1 mps 751 mmHg 60%
12:00 +34°C° 0 mm 1 mps 750 mmHg 59%
13:00 +35°C° 0.2 mm 2 mps 750 mmHg 59%
14:00 +35°C° 0.2 mm 2 mps 749 mmHg 58%
15:00 +35°C° 0.2 mm 2 mps 748 mmHg 58%
16:00 +32°C° 0.1 mm 2 mps 749 mmHg 65%
17:00 +30°C° 0.1 mm 1 mps 749 mmHg 72%
18:00 +29°C° 0.1 mm 1 mps 749 mmHg 79%
19:00 +28°C° 0.3 mm 1 mps 750 mmHg 85%
20:00 +27°C° 0.3 mm 1 mps 750 mmHg 90%
21:00 +26°C° 0.3 mm 1 mps 751 mmHg 96%
22:00 +26°C° 0.5 mm 1 mps 751 mmHg 96%
23:00 +24°C° 0.5 mm 0 mps 751 mmHg 96%
Show more